AKDT,Max TemperatureF,Mean TemperatureF,Min TemperatureF,Max Dew PointF,MeanDew PointF,Min DewpointF,Max Humidity, Mean Humidity, Min Humidity, Max Sea Level PressureIn, Mean Sea Level PressureIn, Min Sea Level PressureIn, Max VisibilityMiles, Mean VisibilityMiles, Min VisibilityMiles, Max Wind SpeedMPH, Mean Wind SpeedMPH, Max Gust SpeedMPH,PrecipitationIn, CloudCover, Events, WindDirDegrees
2011-10-1,57,48,37,43,39,36,97,82,49,30.03,29.94,29.86,10,10,10,9,2,,0.00,1,,34
2011-10-2,57,44,34,42,37,33,100,78,49,29.95,29.88,29.73,10,10,10,9,2,,0.00,1,,32
2011-10-3,55,48,42,45,39,34,89,70,57,29.71,29.45,29.09,10,10,10,15,9,28,0.07,4,Rain,37
2011-10-4,55,47,39,48,45,38,100,87,64,29.54,29.34,29.04,10,8,2,18,5,30,0.55,6,Rain,163
2011-10-5,57,44,33,47,38,33,100,92,62,29.81,29.65,29.55,10,5,0,8,0,,0.00,2,Fog,224
2011-10-6,48,45,42,45,43,41,100,91,80,29.93,29.85,29.81,10,10,10,5,1,,0.17,8,Rain,170
2011-10-7,54,48,42,48,44,42,100,92,77,30.10,30.03,29.93,10,7,0,6,1,,0.05,8,Fog-Rain,167
2011-10-8,48,46,43,46,43,40,100,89,80,29.95,29.47,29.21,10,9,3,17,6,25,0.37,8,Rain,32
2011-10-9,52,47,43,46,44,40,100,91,77,29.76,29.64,29.40,10,9,2,7,4,,0.18,7,Rain,199
2011-10-10,54,49,45,42,40,37,90,71,57,29.56,29.31,29.16,10,10,10,13,6,18,0.02,7,,45
2011-10-11,55,50,46,49,46,43,96,89,75,29.49,29.30,29.18,10,9,2,14,7,21,0.40,8,Rain,26
2011-10-12,54,50,48,49,47,44,97,91,77,30.04,29.79,29.51,10,9,2,7,2,,0.66,8,Rain,184
2011-10-13,50,42,35,46,41,35,100,90,80,30.14,30.11,30.05,10,8,0,8,3,,0.24,6,Fog-Rain,159
2011-10-14,48,42,35,43,39,34,100,93,77,30.15,30.12,30.07,10,8,0,6,1,,0.06,7,Fog-Rain,27
2011-10-15,46,44,41,43,41,39,96,87,77,30.07,30.00,29.92,10,10,10,9,3,,0.12,8,Rain,142
2011-10-16,50,46,44,46,44,42,100,92,82,29.93,29.90,29.84,10,9,4,8,3,,0.35,8,Rain,40
2011-10-17,53,48,44,52,47,43,100,92,82,29.94,29.86,29.78,10,7,4,10,6,20,0.96,8,Rain,90
2011-10-18,54,50,46,52,47,44,100,90,74,29.94,29.87,29.80,10,7,2,13,7,23,1.00,8,Rain,207
2011-10-19,48,42,37,45,42,37,100,94,80,30.01,29.89,29.83,10,7,1,7,2,,0.35,7,Rain,201
2011-10-20,50,42,37,40,38,36,100,87,61,30.02,29.96,29.75,10,10,7,10,1,,0.04,6,Rain,45
2011-10-21,48,44,41,46,42,35,100,89,68,29.70,29.56,29.41,10,8,1,13,5,24,0.43,8,Rain,148
2011-10-22,48,45,42,45,43,40,100,92,83,29.78,29.66,29.55,10,7,2,10,4,22,1.10,8,Rain,181
2011-10-23,48,45,42,45,42,39,97,90,81,29.94,29.85,29.79,10,9,2,9,5,,0.53,8,Rain,168
2011-10-24,51,44,37,45,41,37,100,95,83,30.31,30.14,29.94,10,6,0,6,0,,0.32,7,Fog-Rain,217
2011-10-25,48,44,39,43,41,39,100,88,74,30.31,30.03,29.53,10,8,3,9,3,,1.27,8,Rain,190
2011-10-26,46,43,41,43,40,38,100,89,81,30.04,29.81,29.57,10,8,2,12,5,24,0.62,8,Rain,203
2011-10-27,46,44,41,43,40,37,100,85,71,30.06,29.85,29.05,10,9,2,20,5,30,0.39,8,Rain,160
2011-10-28,46,44,41,45,41,36,97,89,73,29.69,29.28,28.84,10,8,2,21,11,40,1.26,8,Rain,189
2011-10-29,51,46,42,48,43,39,100,91,82,29.69,29.52,29.42,10,6,1,18,8,29,1.54,8,Rain,192
2011-10-30,48,44,42,45,41,33,93,88,65,30.00,29.67,29.52,10,9,1,13,7,22,0.43,8,Rain,206
2011-10-31,48,44,41,43,40,33,93,87,65,30.30,30.22,30.04,10,9,2,13,7,22,0.30,8,Rain,196